sat.trackr.live / text

‹ back to catalog

STARLINK-11325 [DTC]

NORAD 61538 · 2024-184G

PAYLOAD ACTIVE UNKNOWN

§ Identity

Operator
Country
US
Launch date
2024-10-15
Launch site
AFWTR
Launch vehicle
Mass (kg)
RCS (m²)

Purposes: comms

External: N2YO · Heavens-Above · Gunter

§ Orbital elements

Epoch: 2026-05-24T22:05:01.497408Z

Period
91.74 min
Inclination
53.1587°
Eccentricity
0.0000786
Mean motion
15.69699519 rev/d
Perigee alt
359.2 km
Apogee alt
360.3 km
Semi-major
6,737.9 km
B*
1.6138e-5
RAAN
220.2176°
Arg perigee
230.1683°
Mean anomaly
129.9266°
Rev number
9,239

§ Raw data

STARLINK-11325 [DTC]1 61538U 24184G   26144.92015622  .00001367  00000+0  16138-4 0  99952 61538  53.1587 220.2176 0000786 230.1683 129.9266 15.69699519 92396

JSON: /api/v1/satellites/61538 · /tle

For live sub-satellite position, see the globe view (requires WebGL).

§ Visibility from observer

Set your observer location to see the next 7 days of passes ≥ 10°. The values pass through the URL so the page stays shareable.

No JS? Fill the form by hand. The geolocation button needs JavaScript.